Weather History for Calgary Springbank, AB

Change the Weather History Date:

Friday, November 7, 2014

  Actual Average Record
Temperature  
Mean Temperature 35 °F -  
Max Temperature 42 °F 32 °F 68 °F (1999)
Min Temperature 26 °F 13 °F 1 °F (2003)
Degree Days  
Heating Degree Days 30    
Moisture  
Dew Point 33 °F    
Average Humidity 86    
Maximum Humidity 100    
Minimum Humidity 70    
Precipitation  
Precipitation 0.00 in - - ()
Sea Level Pressure  
Sea Level Pressure 30.20 in    
Wind  
Wind Speed 10 mph ()    
Max Wind Speed 16 mph    
Max Gust Speed 22 mph    
Visibility 9.0 miles    
Events Rain    
Averages and records for this station are not official NWS values.
T = Trace of Precipitation, MM = Missing Value Source: Averaged Metar Reports

Daily Weather History Graph

Daily Weather History Graph

Search for Another Location

Airport:

Trip Planner

Search our weather history database for the weather conditions in past years. The results will help you decide how hot, cold, wet, or windy it might be!

Date:

Astronomy

Nov. 07, 2014 Rise Set
Actual Time 7:40 AM MST 5:01 PM MST
Civil Twilight 7:05 AM MST 5:36 PM MST
Nautical Twilight 6:25 AM MST 6:16 PM MST
Astronomical Twilight 5:46 AM MST 6:54 PM MST
Moon 5:54 PM MST (11/7) 8:21 AM MST (11/7)
Length of Visible Light 10h 31m
Length of Day
9h 20m
Full, 99% of the Moon is Illuminated
Nov 7
Full
Nov 14
Last Quarter
Nov 22
New
Nov 29
First Quarter
Dec 6
Full

Hourly Weather History & Observations

Time (MST) Temp. Windchill Dew Point Humidity Pressure Visibility Wind Dir Wind Speed Gust Speed Precip Events Conditions
12:00 AM 42.8 °F 37.0 °F 37.4 °F 81% 29.83 in 9.0 mi North 10.4 mph - N/A   Mostly Cloudy
1:00 AM 42.8 °F 36.2 °F 37.4 °F 81% 29.88 in 9.0 mi North 12.7 mph - N/A   Scattered Clouds
1:55 AM 41.0 °F 34.7 °F 39.2 °F 93% 29.92 in 9.0 mi North 10.4 mph 19.6 mph N/A   Overcast
1:58 AM 41.0 °F 33.1 °F 39.2 °F 93% 29.93 in 9.0 mi NNE 15.0 mph - N/A   Overcast
2:00 AM 41.0 °F 33.5 °F 39.2 °F 93% 29.92 in 9.0 mi NNE 13.8 mph 19.6 mph N/A   Overcast
3:00 AM 39.2 °F 32.0 °F 37.4 °F 93% 29.98 in 9.0 mi North 11.5 mph 19.6 mph N/A   Overcast
4:00 AM 39.2 °F 30.8 °F 35.6 °F 87% 30.03 in 9.0 mi North 15.0 mph 21.9 mph N/A   Overcast
4:02 AM 39.2 °F 32.0 °F 35.6 °F 87% 30.03 in 9.0 mi North 11.5 mph 21.9 mph N/A   Overcast
4:08 AM 39.2 °F 30.5 °F 35.6 °F 87% 30.04 in 9.0 mi North 16.1 mph 21.9 mph N/A   Overcast
4:11 AM 37.4 °F 28.9 °F 35.6 °F 93% 30.04 in 9.0 mi North 13.8 mph 20.7 mph N/A   Overcast
4:19 AM 37.4 °F 29.8 °F 35.6 °F 93% 30.05 in 9.0 mi North 11.5 mph 19.6 mph N/A   Overcast
4:33 AM 37.4 °F 28.5 °F 33.8 °F 87% 30.07 in 9.0 mi North 15.0 mph 21.9 mph N/A   Overcast
5:00 AM 37.4 °F 28.9 °F 32.0 °F 81% 30.12 in 9.0 mi North 13.8 mph 21.9 mph N/A   Overcast
5:26 AM 37.4 °F 28.9 °F 32.0 °F 81% 30.13 in 9.0 mi North 13.8 mph 19.6 mph N/A   Overcast
6:00 AM 37.4 °F 29.3 °F 32.0 °F 81% 30.17 in 9.0 mi NNW 12.7 mph - N/A   Overcast
6:07 AM 37.4 °F 30.3 °F 32.0 °F 81% 30.17 in 9.0 mi NNW 10.4 mph 18.4 mph N/A   Overcast
6:15 AM 35.6 °F 25.9 °F 32.0 °F 87% 30.18 in 9.0 mi North 16.1 mph - N/A Rain Light Rain
6:33 AM 35.6 °F 28.0 °F 33.8 °F 93% 30.20 in 9.0 mi NNW 10.4 mph - N/A Rain Light Rain
7:00 AM 35.6 °F 27.5 °F 32.0 °F 87% 30.21 in 9.0 mi NNW 11.5 mph - N/A Rain Light Rain
7:01 AM 35.6 °F 28.0 °F 32.0 °F 87% 30.21 in 9.0 mi NNW 10.4 mph - N/A   Overcast
7:51 AM 35.6 °F 29.9 °F 32.0 °F 87% 30.25 in 9.0 mi NW 6.9 mph - N/A   Overcast
8:00 AM 35.6 °F 29.9 °F 32.0 °F 87% 30.26 in 9.0 mi NW 6.9 mph - N/A   Overcast
8:47 AM 35.6 °F 28.6 °F 32.0 °F 87% 30.29 in 9.0 mi NNW 9.2 mph - N/A Rain Light Rain
8:57 AM 35.6 °F 28.6 °F 32.0 °F 87% 30.30 in 9.0 mi North 9.2 mph - N/A Rain Light Rain
9:00 AM 35.6 °F 28.6 °F 32.0 °F 87% 30.30 in 9.0 mi North 9.2 mph - N/A Rain Light Rain
9:09 AM 35.6 °F 28.0 °F 32.0 °F 87% 30.32 in 9.0 mi North 10.4 mph - N/A Rain Light Rain
9:32 AM 35.6 °F 29.9 °F 32.0 °F 87% 30.33 in 9.0 mi North 6.9 mph - N/A   Overcast
9:53 AM 35.6 °F 31.7 °F 33.8 °F 93% 30.32 in 9.0 mi North 4.6 mph - N/A   Overcast
10:00 AM 35.6 °F 31.7 °F 32.0 °F 87% 30.33 in 9.0 mi North 4.6 mph - N/A   Overcast
10:28 AM 37.4 °F 34.9 °F 32.0 °F 81% 30.34 in 9.0 mi North 3.5 mph - N/A   Overcast
11:00 AM 35.6 °F 29.9 °F 30.2 °F 81% 30.36 in 9.0 mi ENE 6.9 mph - N/A   Overcast
11:03 AM 35.6 °F 29.9 °F 30.2 °F 81% 30.36 in 9.0 mi ENE 6.9 mph - N/A   Overcast
12:00 PM 37.4 °F 32.8 °F 32.0 °F 81% 30.36 in 9.0 mi ENE 5.8 mph - N/A   Overcast
1:00 PM 37.4 °F 32.1 °F 32.0 °F 81% 30.34 in 9.0 mi SE 6.9 mph - N/A   Overcast
2:00 PM 39.2 °F 34.2 °F 30.2 °F 70% 30.35 in 9.0 mi SE 6.9 mph - N/A   Overcast
3:00 PM 39.2 °F 31.6 °F 30.2 °F 70% 30.32 in 9.0 mi SE 12.7 mph - N/A   Clear
4:00 PM 37.4 °F 30.8 °F 30.2 °F 75% 30.33 in 9.0 mi SE 9.2 mph - N/A   Clear
5:00 PM 35.6 °F 28.0 °F 30.2 °F 81% 30.34 in 9.0 mi SE 10.4 mph - N/A   Mostly Cloudy
6:00 PM 32.0 °F 25.6 °F 30.2 °F 93% 30.35 in 9.0 mi ESE 6.9 mph - N/A   Overcast
7:00 PM 32.0 °F - 30.2 °F 93% 30.36 in 9.0 mi Calm Calm - N/A   Overcast
8:00 PM 33.8 °F 27.7 °F 30.2 °F 87% 30.34 in 9.0 mi SSE 6.9 mph - N/A   Overcast
9:00 PM 30.2 °F 24.3 °F 28.4 °F 93% 30.31 in 9.0 mi SSE 5.8 mph - N/A   Scattered Clouds
10:00 PM 28.4 °F 21.2 °F 26.6 °F 93% 30.31 in 9.0 mi SE 6.9 mph - N/A   Clear
11:00 PM 26.6 °F 20.0 °F 26.6 °F 100% 30.29 in 9.0 mi SE 5.8 mph - N/A   Clear